www.pogodaiklimat.ru

Погода и климат >> Архив погоды >> Россия >> Ростовская область >> Цимлянск


АРХИВ ПОГОДЫ в Цимлянске

Время (UTC), дата Ветер
(напр.,м/с)
 
Видим.   Явления Облачность Т
(С)
Тd
(С)
f
(%)
Тe
(С)
Тes
(С)
Комфортность P
(гПа)
Po
(гПа)
Тmin
(С)
Tmax
(С)
R
(мм)
R24
(мм)
S
(см)
15 15.09 СЗ 2 20 км 4/0
[Ci fib]
+20.2 +1.1 28 +21 +21 комфорт 1019.0 1011.3 +23.0
18 15.09 С 2 20 км 3/0
[Ci fib]
+16.4 +0.6 34 +17 +17 1020.4 1012.5
21 15.09 штиль 0 20 км 10/0
[Ci fib]
+11.7 +2.3 52 +11 +11 1020.4 1012.4
00 16.09 З 1 20 км 4/0
[Ci fib]
+11.5 +1.4 50 +12 +12 1019.7 1011.7
03 16.09 ЮЗ 2 20 км ясно +11.2 +2.7 56 +10 +10 1019.4 1011.4 +10.5
06 16.09 ЮЗ 2 20 км ясно +16.6 +5.0 46 +17 +22 1018.3 1010.4
09 16.09 ЮЗ 4
{10}
20 км ясно +23.3 +2.6 26 +23 +30 комфорт 1015.3 1007.6
12 16.09 З 4
{11}
20 км ясно +24.9 +1.3 21 +24 +28 комфорт 1012.6 1004.9
15 16.09 З 2
{11}
20 км ясно +22.6 +1.3 24 +22 +22 комфорт 1012.6 1003.4 +25.3
18 16.09 З 2 20 км ясно +17.6 +1.0 33 +18 +18 1011.3 1003.5
21 16.09 З 2 20 км ясно +13.5 +2.9 49 +13 +13 1011.2 1003.3
00 17.09 З 2 20 км ясно +12.3 +5.3 62 +12 +12 1010.2 1002.3
03 17.09 З 2 20 км ясно +11.8 +6.8 71 +11 +11 1009.9 1001.9 +11.7
06 17.09 ЮЗ 4 20 км ясно +19.4 +11.7 61 +21 +24 комфорт 1009.2 1001.5
09 17.09 ЮЗ 7-13
{13}
20 км 3/0
[Ac trans]
+25.6 +9.4 36 +26 +28 жарко 1007.5 1000.0
12 17.09 З 5
{14}
20 км 8/4 600 м
[Cu med, cong Ac trans Ci fib]
+26.4 +11.7 40 +28 +29 жарко 1006.2 998.7
15 17.09 СЗ 4
{11}
20 км 10/3 1000 м
[Cu med, cong Ac und]
+20.8 +11.3 54 +23 +23 комфорт 1007.3 999.6 +27.6
18 17.09 З 2
{10}
20 км 10/6 600 м
[Sc Ac und]
+17.0 +10.9 67 +17 +17 1009.2 1001.4
21 17.09 ЮЗ 2 10 км слаб. ливневой дождь 10/10 600 м
[Cb cap]
+14.6 +13.8 95 +14 +14 1008.9 1001.1
00 18.09 ЮЗ 2 20 км {ливн. осадки} 9/9 600 м
[Sc diur, vesp]
+14.9 +14.2 96 +15 +15 1008.9 1001.1
03 18.09 З 1 20 км 10/8 600 м
[Sc diur, vesp Ci fib]
+14.5 +13.9 96 +15 +15 1008.7 1000.9 +14.2 4
06 18.09 ЮЗ 4 20 км 3/0
[Ac trans]
+16.7 +12.9 78 +16 +19 1009.4 1001.6
09 18.09 ЮЗ 4
{10}
20 км 6/0
[Ac trans]
+22.0 +12.4 54 +24 +29 комфорт 1008.2 1000.6
12 18.09 ЮЗ 6-10
{15}
20 км 6/6 1000 м
[Cu med, cong]
+23.6 +13.6 53 +26 +27 жарко 1004.4 996.9
15 18.09 ЮЗ 7-14
{22}
10 км гроза, ливневой дождь 10/10 600 м
[Cb cap]
+17.2 +15.2 88 +16 +16 1005.4 997.6 +24.6 4
18 18.09 З 4
{15}
20 км {гроза, ливн. осадки} 10/10 600 м
[Sc diur, vesp]
+16.3 +13.7 85 +16 +16 1008.1 1000.3
21 18.09 З 3
{11}
20 км 10/10 600 м
[Sc]
+13.1 +6.9 66 +12 +12 1011.0 1003.1
00 19.09 З 2 20 км ясно +9.5 +5.3 75 +8 +8 1013.3 1005.3
03 19.09 З 1 20 км ясно +8.0 +4.7 80 +7 +7 1015.3 1007.2 +8.0 3
06 19.09 З 4 20 км ясно +12.1 +5.2 63 +10 +13 1017.3 1009.3
09 19.09 З 5-10
{11}
20 км 8/8 1000 м
[Cu med, cong]
+15.8 +4.9 48 +15 +16 1017.9 1010.0
12 19.09 З 3
{12}
20 км 8/8 1000 м
[Cu med, cong Ci fib]
+16.3 +5.2 48 +16 +17 1018.1 1010.2
15 19.09 СЗ 2
{11}
20 км 6/6 1000 м
[Cu med, cong]
+15.0 +4.8 50 +15 +15 1018.8 1010.9 +17.4
18 19.09 С 2 20 км 3/0
[Ac trans]
+11.5 +3.6 58 +11 +11 1020.1 1012.1
21 19.09 ЮЗ 1 20 км ясно +9.1 +5.2 77 +9 +9 1019.7 1011.6
00 20.09 З 2 20 км 3/0
[Ci fib]
+7.9 +5.4 84 +6 +6 1019.4 1011.3
03 20.09 ЮЗ 1 20 км 10/0
[Ac und]
+8.9 +5.6 80 +8 +8 1019.1 1011.0 +7.7
06 20.09 СЗ 1 20 км 10/6 1000 м
[Sc Ac und]
+10.8 +7.2 78 +11 +11 1018.8 1010.8
09 20.09 З 2 20 км 10/4 1000 м
[Sc Ac und]
+14.3 +7.9 65 +14 +16 1017.4 1009.5
12 20.09 ЮЗ 1 20 км 10/10
[Sc]
+14.9 +8.0 63 +16 +16 1015.9 1008.0
15 20.09 ЮЗ 2 10 км слаб. ливневой дождь 10/10 600 м
[Cb cap]
+10.2 +8.1 87 +9 +9 1016.8 1008.8 +15.5 1
18 20.09 З 1 4000 м ливневой дождь 10/10 600 м
[Cb cap]
+8.7 +7.7 93 +8 +8 1016.6 1008.6
21 20.09 В 2 10 км слаб. ливневой дождь 10/10 600 м
[Cb cap]
+9.5 +7.1 85 +8 +8 1015.5 1007.5
00 21.09 СЗ 2 20 км {ливн. осадки} 8/8 600 м
[Sc diur, vesp]
+7.9 +7.1 95 +6 +6 1015.4 1007.3
03 21.09 З 2 20 км 10/4 1000 м
[Sc Ac As Ci fib]
+7.9 +7.0 94 +6 +6 1015.2 1007.2 +7.7 14
06 21.09 ЮЗ 3 20 км 9/1 1000 м
[Sc Ac trans Ci fib]
+10.6 +7.9 83 +9 +10 1015.5 1007.5 +7.6
09 21.09 З 3 20 км 9/5 1000 м
[Cu med, cong Ac trans Ci fib]
+14.0 +8.7 70 +13 +15 1015.0 1007.1
12 21.09 ЮЗ 3 20 км 4/3 1000 м
[Cu med, cong Ci fib]
+14.7 +7.1 60 +14 +17 1013.8 1006.0
15 21.09 С 5
{12}
10 км гроза, ливневой дождь [макс. диам. градин 3 мм] 10/10 600 м
[Cb cap]
+9.2 +5.7 79 +6 +6 1015.8 1007.8 +15.1 5
18 21.09 З 3
{10}
20 км {гроза, ливн. осадки} [макс. диам. градин 3 мм] 8/8 600 м
[Sc]
+8.2 +6.5 89 +5 +5 1017.0 1009.0
21 21.09 З 2 20 км 1/0
[Ac trans]
+6.5 +5.4 93 +4 +4 1017.2 1009.1
00 22.09 З 3 20 км ясно +5.3 +4.0 91 +2 +2 1017.4 1009.2
03 22.09 ЮЗ 3 20 км ясно +4.1 +3.4 95 0 0 1017.7 1009.5 +4.1 0.3
06 22.09 ЮЗ 4-10
{10}
20 км 8/0
[Ac trans]
+9.4 +5.1 74 +7 +8 1016.8 1008.8
09 22.09 ЮЗ 7-16
{16}
10 км слаб. ливневой дождь 10/10 1000 м
[Cb cap]
+12.4 +6.2 66 +10 +10 1013.8 1005.8
12 22.09 З 8-14
{20}
10 км слаб. ливневой дождь 10/10 600 м
[Cb cap]
+12.5 +9.8 84 +9 +9 1011.6 1003.7

 

Местоположение метеостанции Цимлянск (Ростовская область, Россия): широта 47.63 долгота 42.12 высота над уровнем моря 66 м.

В архиве по умолчанию представлена погода в Цимлянске за последнюю неделю. Архивные данные за месяц целиком и за предыдущие месяцы, начиная с января 2011 года, Вы можете получить, выбрав интересующий диапазон дат из раскрывающегося списка и нажав кнопку "Ввод!".


*Определитесь, кто Вы:
робот инопланетянин человек

Внимание! Время в таблицах - всемирное. Для получения местного времени необходимо прибавить поправку, которая равна 3 ч.

Смотрите также архив погоды в соседних городах и на ближайших метеорологических станциях:

Погода в Зимовниках (Ростовская область, Россия) (60 км)
Погода в Константиновске (Ростовская область, Россия) (77 км)
Погода в Котельниково (Волгоградская область, Россия) (77 км)
Погода в Морозовске (Ростовская область, Россия) (82 км)
Погода в Семикаракорске (Ростовская область, Россия) (98 км)
Погода в Нижнем Чире (Волгоградская область, Россия) (108 км)
Погода в Белой Калитве (Ростовская область, Россия) (118 км)
Погода в Гиганте (Ростовская область, Россия) (137 км)
Погода в Шахтах (Ростовская область, Россия) (139 км)
Погода в Калаче-на-Дону (Волгоградская область, Россия) (154 км)

Пояснения к столбцам:

Ветер - указаны скорость ветра в м/с - средняя за 10 мин, порывы в срок и между сроками (в фигурных скобках) и направление, откуда дует ветер: С - северный, СВ - северо-восточный, В - восточный, ЮВ - юго-восточный, Ю - южный, ЮЗ - юго-западный, З - западный, СЗ - северо-западный.
Видимость - горизонтальная дальность видимости в метрах или километрах. При видимости от 1 до 10 км при отсутствии осадков обычно наблюдается дымка, при ухудшении видимости до 1 км и менее - туман. В сухую погоду видимость может ухудшаться дымом, пылью или мглою.
Явления - указаны атмосферные явления, наблюдавшиеся в срок или в последний час перед сроком; фигурными скобками обозначены явления, наблюдавшиеся между сроками (за 1-3 часа до срока); квадратными скобками обозначены град или гололедные отложения с указанием их диаметра в мм.
Облачность - указаны через наклонную черту общая и нижняя облачность в баллах и высота нижней границы облаков в метрах; квадратными скобками обозначены формы облаков: Ci - перистые, Cs - перисто-слоистые, Cc - перисто-кучевые, Ac - высококучевые, As - высокослоистые, Sc - слоисто-кучевые, Ns - слоисто-дождевые, Cu - кучевые, Cb - кучево-дождевые. Подробнее классификацию облаков см. в Атласе облаков (PDF).
T - Температура воздуха - температура, измеренная на высоте 2 м над землей.
Td - Температура точки росы - температура, при понижении до которой содержащийся в воздухе водяной пар достигнет насыщения.
f - Относительная влажность воздуха - влажноcть воздуха, измеренная на высоте 2 м над землей.
Te - Эффективная температура - температура, которую ощущает одетый по сезону человек в тени. Характеристика душности погоды. При расчете учитывается влияние влажности воздуха и скорости ветра на теплоощущения человека.
Tes - Эффективная температура на солнце - температура, которую ощущает человек, с поправкой на солнечный нагрев. Характеристика знойности погоды. Зависит от высоты солнца над горизонтом, облачности и скорости ветра. Ночью, в пасмурную погоду, а также при ветре 12 м/с и более поправка равна нулю.
P - Атмосферное давление - приведенное к уровню моря атмосферное давление.
Po - Атмосферное давление - измеренное на уровне метеостанции атмосферное давление.
Tmin - Минимальная температура - минимум температуры воздуха на высоте 2 м над землей.
Tmax - Максимальная температура - максимум температуры воздуха на высоте 2 м над землей.
R - Количество осадков - Количество выпавших осадков за период времени, мм. При наведении курсора мыши на число - период времени, за который выпало указанное количество осадков.
R24 - Количество осадков - Количество выпавших осадков за 24 часа, мм.
S - Снежный покров - Высота снежного покрова, см. При наведении курсора мыши на число - состояние снежного покрова и степень покрытия местности в баллах.